Terug naar catalogus

STARLINK-4073

ActiefCommunicatieVLEO
NORAD 52672·PAYLOAD·🇺🇸 United States

Gelanceerd May 18, 2022 vanaf Cape Canaveral Space Force Station

Loading…

Volgende Passages (komende 24 uur)

TLE

VersSource: CelesTrak SupGP

Epoch: Sep 15, 2026, 01:31 UTC

1 52672C 22053S   26258.06368056 -.00021012  00000+0 -13179-2 0  2589
2 52672  53.1608  23.3590 0001283  89.8397  67.2766 15.08840255    10

Volg STARLINK-4073 in realtime met AllMySat

Download on the App Store